Location: Nachod
(50.4170°N, 16.1670°E)
Time: 15:26:39
(UTC+01:00)

Envisat - Visible Passes

Search period start: 17 November 2019 00:00
Search period end: 27 November 2019 00:00
Orbit: 764 x 766 km, 98.1° (Epoch: 17 November)

Date Brightness Start Highest point End Pass type
(mag) Time Alt. Az. Time Alt. Az. Time Alt. Az.
17 Nov 4.1 06:33:45 10° NNE 06:38:43 52° E 06:43:40 10° S visible
17 Nov 3.1 17:52:58 10° S 17:58:03 78° WSW 18:03:10 10° NNW visible
17 Nov 6.1 19:36:00 10° WSW 19:37:57 12° W 19:39:55 10° WNW visible
18 Nov 5.4 05:57:25 10° NE 06:01:42 26° E 06:05:56 10° SSE visible
18 Nov 3.1 17:16:24 10° SE 17:21:20 55° ENE 17:26:18 10° N visible
18 Nov 5.2 18:56:35 10° SW 19:00:41 24° W 19:04:48 10° NW visible
19 Nov 6.2 05:22:04 10° ENE 05:24:28 13° E 05:26:51 10° ESE visible
19 Nov 3.8 16:40:29 10° ESE 16:44:48 29° ENE 16:49:09 10° N visible
19 Nov 4.0 18:18:44 10° S 18:23:38 48° W 18:28:34 10° NNW visible
20 Nov 4.5 06:22:33 10° NNE 06:27:24 42° E 06:32:12 10° SSE visible
20 Nov 2.9 17:41:41 10° SSE 17:46:46 87° ENE 17:51:54 10° NNW visible
20 Nov 5.9 19:23:38 10° WSW 19:26:30 15° W 19:29:24 10° NW visible
21 Nov 5.7 05:46:25 10° NE 05:50:18 22° E 05:54:11 10° SE visible
21 Nov 3.3 17:05:18 10° SE 17:10:06 45° ENE 17:14:57 10° N visible
21 Nov 4.9 18:44:53 10° SSW 18:49:18 29° W 18:53:45 10° NNW visible
22 Nov 6.4 05:12:04 10° ENE 05:13:00 10° E 05:13:56 10° E visible
22 Nov 4.0 16:29:35 10° ESE 16:33:38 25° ENE 16:37:41 10° N visible
22 Nov 3.6 18:07:18 10° S 18:12:18 59° W 18:17:21 10° NNW visible
23 Nov 4.9 06:11:24 10° NNE 06:16:03 34° E 06:20:40 10° SSE visible
23 Nov 2.9 17:30:28 10° SSE 17:35:31 72° ENE 17:40:36 10° N visible
23 Nov 5.6 19:11:35 10° SW 19:15:04 18° W 19:18:36 10° NW visible
24 Nov 5.9 05:35:29 10° NE 05:38:53 18° E 05:42:16 10° SE visible
24 Nov 3.5 16:54:15 10° SE 16:58:54 37° ENE 17:03:34 10° N visible
24 Nov 4.5 18:33:17 10° SSW 18:37:57 36° W 18:42:38 10° NNW visible
25 Nov 3.9 06:36:40 10° NNE 06:41:41 56° E 06:46:40 10° S visible
25 Nov 3.2 17:55:56 10° S 18:01:00 72° WSW 18:06:07 10° NNW visible
25 Nov 6.2 19:39:35 10° W 19:40:58 11° W 19:42:22 10° WNW visible
26 Nov 5.2 06:00:18 10° NE 06:04:41 28° E 06:09:03 10° SSE visible
26 Nov 3.0 17:19:17 10° SSE 17:24:16 59° ENE 17:29:16 10° N visible
26 Nov 5.3 18:59:43 10° SW 19:03:40 23° W 19:07:39 10° NW visible
